When you browse on this site, cookies collect data to enhance your experience and personalize the content and advertising you see.
Visit our Privacy Policy to learn more. By continuing to use the site, you agree to this use of cookies and data.
  • In Lithuania
  • List of Countries
  • For 7 days
  • Water Temperature
  • Weather Map
  • Weather Widgets
  • user-avatar
    Login

    Hourly Weather Mutare

    Today, 15 November, Friday

    Time Temperature Precipitation Wind Pressure Humidity
    00:00 +19°C° 0.1 mm 0 mps 650 mmHg 90%
    01:00 +19°C° 0.1 mm 0 mps 650 mmHg 90%
    02:00 +18°C° 0 mm 0 mps 649 mmHg 92%
    03:00 +20°C° 0.3 mm 1 mps 649 mmHg 91%
    04:00 +20°C° 0.3 mm 1 mps 649 mmHg 90%
    05:00 +20°C° 0.3 mm 1 mps 649 mmHg 89%
    06:00 +22°C° 0 mm 1 mps 650 mmHg 85%
    07:00 +23°C° 0 mm 1 mps 651 mmHg 80%
    08:00 +21°C° 0 mm 0 mps 651 mmHg 80%
    09:00 +25°C° 0.1 mm 1 mps 651 mmHg 69%
    10:00 +28°C° 0.1 mm 1 mps 651 mmHg 59%
    11:00 +30°C° 0.1 mm 2 mps 651 mmHg 48%
    12:00 +30°C° 0 mm 2 mps 651 mmHg 46%
    13:00 +31°C° 0 mm 2 mps 650 mmHg 44%
    14:00 +30°C° 0 mm 3 mps 649 mmHg 47%
    15:00 +27°C° 3.1 mm 2 mps 648 mmHg 62%
    16:00 +24°C° 3.1 mm 2 mps 647 mmHg 77%
    17:00 +20°C° 3.1 mm 2 mps 646 mmHg 91%
    18:00 +20°C° 0.1 mm 2 mps 647 mmHg 91%
    19:00 +21°C° 0.1 mm 1 mps 648 mmHg 90%
    20:00 +20°C° 0.1 mm 1 mps 649 mmHg 89%
    21:00 +20°C° 0.1 mm 1 mps 649 mmHg 89%
    22:00 +18°C° 0.1 mm 0 mps 649 mmHg 89%
    23:00 +18°C° 0.1 mm 0 mps 649 mmHg 89%

    Tomorrow, 16 November, Saturday

    Time Temperature Precipitation Wind Pressure Humidity
    00:00 +19°C° 0 mm 1 mps 649 mmHg 91%
    01:00 +19°C° 0 mm 1 mps 648 mmHg 93%
    02:00 +19°C° 0 mm 1 mps 648 mmHg 95%
    03:00 +19°C° 0 mm 1 mps 648 mmHg 95%
    04:00 +17°C° 0 mm 0 mps 648 mmHg 96%
    05:00 +17°C° 0 mm 0 mps 648 mmHg 96%
    06:00 +19°C° 0.1 mm 0 mps 649 mmHg 88%
    07:00 +21°C° 0.1 mm 0 mps 650 mmHg 80%
    08:00 +23°C° 0.1 mm 0 mps 651 mmHg 72%
    09:00 +27°C° 0.5 mm 1 mps 651 mmHg 66%
    10:00 +28°C° 0.5 mm 1 mps 651 mmHg 60%
    11:00 +30°C° 0.5 mm 1 mps 651 mmHg 54%
    12:00 +30°C° 0.3 mm 2 mps 651 mmHg 52%
    13:00 +30°C° 0.3 mm 2 mps 650 mmHg 51%
    14:00 +30°C° 0.3 mm 2 mps 650 mmHg 50%
    15:00 +28°C° 0.6 mm 2 mps 649 mmHg 58%
    16:00 +26°C° 0.6 mm 1 mps 648 mmHg 66%
    17:00 +24°C° 0.6 mm 1 mps 648 mmHg 74%
    18:00 +23°C° 0.1 mm 1 mps 648 mmHg 78%
    19:00 +22°C° 0.1 mm 1 mps 648 mmHg 82%
    20:00 +21°C° 0.1 mm 1 mps 649 mmHg 87%
    21:00 +21°C° 0 mm 1 mps 649 mmHg 88%
    22:00 +21°C° 0 mm 1 mps 649 mmHg 89%
    23:00 +20°C° 0 mm 1 mps 649 mmHg 90%

    Day after tomorrow, 17 November, Sunday

    Time Temperature Precipitation Wind Pressure Humidity
    00:00 +20°C° 0 mm 1 mps 649 mmHg 90%
    01:00 +20°C° 0 mm 1 mps 649 mmHg 90%
    02:00 +19°C° 0 mm 2 mps 649 mmHg 91%
    03:00 +19°C° 0 mm 1 mps 649 mmHg 92%
    04:00 +19°C° 0 mm 1 mps 649 mmHg 94%
    05:00 +19°C° 0 mm 1 mps 649 mmHg 95%
    06:00 +21°C° 0 mm 1 mps 649 mmHg 87%
    07:00 +23°C° 0 mm 2 mps 650 mmHg 79%
    08:00 +25°C° 0 mm 2 mps 651 mmHg 71%
    09:00 +26°C° 0.3 mm 2 mps 651 mmHg 63%
    10:00 +28°C° 0.3 mm 2 mps 651 mmHg 56%
    11:00 +30°C° 0.3 mm 2 mps 651 mmHg 49%
    12:00 +29°C° 0.6 mm 2 mps 650 mmHg 54%
    13:00 +28°C° 0.6 mm 2 mps 649 mmHg 58%
    14:00 +27°C° 0.6 mm 2 mps 649 mmHg 63%
    15:00 +26°C° 0.2 mm 2 mps 648 mmHg 65%
    16:00 +26°C° 0.2 mm 2 mps 648 mmHg 67%
    17:00 +26°C° 0.2 mm 2 mps 648 mmHg 69%
    18:00 +24°C° 0.1 mm 2 mps 648 mmHg 74%
    19:00 +23°C° 0.1 mm 1 mps 648 mmHg 78%
    20:00 +22°C° 0.1 mm 1 mps 649 mmHg 83%
    21:00 +22°C° 0 mm 1 mps 649 mmHg 84%
    22:00 +22°C° 0 mm 1 mps 649 mmHg 85%
    23:00 +20°C° 0 mm 2 mps 650 mmHg 85%

    18 November, Monday

    Time Temperature Precipitation Wind Pressure Humidity
    00:00 +20°C° 0 mm 2 mps 650 mmHg 87%
    01:00 +21°C° 0 mm 1 mps 649 mmHg 89%
    02:00 +20°C° 0 mm 1 mps 649 mmHg 91%
    03:00 +20°C° 0 mm 1 mps 649 mmHg 92%
    04:00 +20°C° 0 mm 1 mps 649 mmHg 92%
    05:00 +17°C° 0 mm 0 mps 649 mmHg 93%
    06:00 +22°C° 0 mm 1 mps 650 mmHg 82%
    07:00 +25°C° 0 mm 1 mps 651 mmHg 71%
    08:00 +27°C° 0 mm 1 mps 652 mmHg 60%
    09:00 +29°C° 0.1 mm 1 mps 653 mmHg 53%
    10:00 +31°C° 0.1 mm 2 mps 653 mmHg 46%
    11:00 +33°C° 0.1 mm 3 mps 653 mmHg 39%
    12:00 +33°C° 0 mm 3 mps 652 mmHg 41%
    13:00 +31°C° 0 mm 3 mps 652 mmHg 43%
    14:00 +30°C° 0 mm 3 mps 651 mmHg 45%
    15:00 +29°C° 0.1 mm 3 mps 650 mmHg 50%
    16:00 +28°C° 0.1 mm 3 mps 650 mmHg 54%
    17:00 +28°C° 0.1 mm 3 mps 650 mmHg 58%
    18:00 +26°C° 0.1 mm 3 mps 650 mmHg 66%
    19:00 +24°C° 0.1 mm 3 mps 650 mmHg 75%
    20:00 +22°C° 0.1 mm 3 mps 651 mmHg 83%
    21:00 +21°C° 0.2 mm 3 mps 651 mmHg 84%
    22:00 +21°C° 0.2 mm 3 mps 651 mmHg 86%
    23:00 +20°C° 0.2 mm 3 mps 652 mmHg 88%

    19 November, Tuesday

    Time Temperature Precipitation Wind Pressure Humidity
    00:00 +20°C° 0 mm 2 mps 651 mmHg 90%
    01:00 +20°C° 0 mm 2 mps 651 mmHg 92%
    02:00 +20°C° 0 mm 1 mps 650 mmHg 95%
    03:00 +20°C° 0 mm 1 mps 650 mmHg 94%
    04:00 +20°C° 0 mm 1 mps 651 mmHg 94%
    05:00 +20°C° 0 mm 1 mps 651 mmHg 94%
    06:00 +22°C° 0 mm 1 mps 651 mmHg 85%
    07:00 +24°C° 0 mm 1 mps 652 mmHg 76%
    08:00 +26°C° 0 mm 1 mps 653 mmHg 66%
    09:00 +28°C° 0 mm 2 mps 653 mmHg 57%
    10:00 +31°C° 0 mm 2 mps 654 mmHg 48%
    11:00 +34°C° 0 mm 2 mps 654 mmHg 39%
    12:00 +32°C° 0.1 mm 2 mps 653 mmHg 41%
    13:00 +32°C° 0.1 mm 2 mps 652 mmHg 43%
    14:00 +31°C° 0.1 mm 2 mps 651 mmHg 45%
    15:00 +30°C° 0.1 mm 1 mps 651 mmHg 48%
    16:00 +29°C° 0.1 mm 1 mps 651 mmHg 51%
    17:00 +28°C° 0.1 mm 1 mps 650 mmHg 55%
    18:00 +25°C° 0.1 mm 0 mps 650 mmHg 59%
    19:00 +23°C° 0.1 mm 0 mps 650 mmHg 63%
    20:00 +22°C° 0.1 mm 0 mps 650 mmHg 67%
    21:00 +22°C° 0.1 mm 0 mps 650 mmHg 70%
    22:00 +21°C° 0.1 mm 0 mps 651 mmHg 72%
    23:00 +23°C° 0.1 mm 1 mps 651 mmHg 74%

    20 November, Wednesday

    Time Temperature Precipitation Wind Pressure Humidity
    00:00 +23°C° 0 mm 1 mps 650 mmHg 76%
    01:00 +20°C° 0 mm 0 mps 650 mmHg 77%
    02:00 +20°C° 0 mm 0 mps 650 mmHg 78%
    03:00 +20°C° 0.1 mm 0 mps 650 mmHg 78%
    04:00 +22°C° 0.1 mm 1 mps 650 mmHg 78%
    05:00 +22°C° 0.1 mm 1 mps 651 mmHg 78%
    06:00 +22°C° 0 mm 0 mps 651 mmHg 72%
    07:00 +23°C° 0 mm 0 mps 652 mmHg 67%
    08:00 +25°C° 0 mm 0 mps 653 mmHg 62%
    09:00 +28°C° 0.3 mm 1 mps 653 mmHg 56%
    10:00 +30°C° 0.3 mm 1 mps 653 mmHg 50%
    11:00 +32°C° 0.3 mm 1 mps 653 mmHg 43%
    12:00 +31°C° 0.6 mm 2 mps 652 mmHg 45%
    13:00 +30°C° 0.6 mm 2 mps 651 mmHg 47%
    14:00 +30°C° 0.6 mm 2 mps 650 mmHg 49%
    15:00 +27°C° 1.3 mm 2 mps 650 mmHg 62%
    16:00 +24°C° 1.3 mm 2 mps 649 mmHg 74%
    17:00 +21°C° 1.3 mm 2 mps 649 mmHg 87%
    18:00 +20°C° 1.7 mm 2 mps 649 mmHg 89%
    19:00 +21°C° 1.7 mm 1 mps 650 mmHg 92%
    20:00 +18°C° 1.7 mm 0 mps 651 mmHg 95%
    21:00 +18°C° 1.2 mm 0 mps 651 mmHg 95%
    22:00 +18°C° 1.2 mm 0 mps 651 mmHg 94%
    23:00 +18°C° 1.2 mm 0 mps 652 mmHg 94%
    Show more